,,PA_Meas_PMT16A,,PR_Meas_QMR101_102,,RH_Meas_QMH101,,SR_Meas_QMS101,,TA_Meas_QMH101,,GenWind,,GenWind,
time,status,PA,status,PR,status,RH,status,SR,status,TA,status,DirAvg,status,SpdAvg,
2015-07-14, 16:24:04,VALID,914.726,VALID,0,VALID,81.0293,VALID,60.8117,VALID,23.5022,VALID,29,VALID,0.240234,
2015-07-14, 16:25:04,VALID,914.676,VALID,0,VALID,81.3266,VALID,64.787,VALID,23.4632,VALID,7,VALID,0.078125,
2015-07-14, 16:26:04,VALID,914.651,VALID,0,VALID,82.5006,VALID,66.8284,VALID,23.3656,VALID,27,VALID,0,
2015-07-14, 16:27:04,VALID,914.659,VALID,0,VALID,83.2401,VALID,66.9358,VALID,23.3283,VALID,10,VALID,0,
2015-07-14, 16:28:04,VALID,914.625,VALID,0,VALID,82.8284,VALID,69.2995,VALID,23.268,VALID,13,VALID,0,
2015-07-14, 16:29:04,VALID,914.648,VALID,0,VALID,85.7634,VALID,71.5558,VALID,23.2485,VALID,14,VALID,0,
2015-07-14, 16:30:04,VALID,914.621,VALID,0,VALID,84.9782,VALID,69.7293,VALID,23.2502,VALID,14,VALID,0,
2015-07-14, 16:31:04,VALID,914.661,VALID,0,VALID,83.5526,VALID,60.0596,VALID,23.1509,VALID,2,VALID,0,
2015-07-14, 16:42:04,VALID,914.751,VALID,0,VALID,85.6415,VALID,65.754,VALID,22.7411,VALID,2,VALID,0,
2015-07-14, 16:43:04,VALID,914.727,VALID,0,VALID,86.1675,VALID,63.1754,VALID,22.8404,VALID,2,VALID,0,
2015-07-14, 16:52:04,VALID,914.919,VALID,0,VALID,87.9437,VALID,68.1177,VALID,22.8404,VALID,6,VALID,0,
2015-07-14, 16:53:04,VALID,914.951,VALID,0,VALID,86.2361,VALID,71.6632,VALID,22.7996,VALID,2,VALID,0,
2015-07-14, 16:54:04,VALID,914.935,VALID,0,VALID,85.893,VALID,75.4237,VALID,22.7411,VALID,2,VALID,0,
2015-07-14, 16:55:04,VALID,914.968,VALID,0,VALID,86.3657,VALID,76.0683,VALID,22.7428,VALID,2,VALID,0,
2015-07-14, 16:56:04,VALID,914.972,VALID,0,VALID,86.3428,VALID,77.4651,VALID,22.7445,VALID,2,VALID,0,
2015-07-14, 16:57:04,VALID,915.013,VALID,0,VALID,87.5244,VALID,81.333,VALID,22.8031,VALID,2,VALID,0,
2015-07-14, 16:58:04,VALID,915.007,VALID,0,VALID,86.5105,VALID,81.6553,VALID,22.7428,VALID,30,VALID,0,
2015-07-14, 16:59:04,VALID,914.994,VALID,0,VALID,86.8536,VALID,76.4981,VALID,22.7233,VALID,30,VALID,0,
2015-07-14, 17:00:04,VALID,915.009,VALID,0,VALID,87.3415,VALID,70.0516,VALID,22.7428,VALID,36,VALID,0,
2015-07-14, 17:01:04,VALID,915.008,VALID,0,VALID,87.372,VALID,66.9358,VALID,22.7836,VALID,36,VALID,0,
2015-07-14, 17:02:04,VALID,915.024,VALID,0,VALID,87.0747,VALID,68.7623,VALID,22.7428,VALID,36,VALID,0,
2015-07-14, 17:03:04,VALID,915.02,VALID,0,VALID,87.9971,VALID,73.5972,VALID,22.7623,VALID,32,VALID,0,
2015-07-14, 17:04:04,VALID,914.994,VALID,0,VALID,86.7697,VALID,79.2916,VALID,22.7623,VALID,31,VALID,0,
2015-07-14, 17:05:04,VALID,915.047,VALID,0,VALID,86.4953,VALID,82.1925,VALID,22.7818,VALID,25,VALID,0,
2015-07-14, 17:06:04,VALID,915.005,VALID,0,VALID,86.3885,VALID,83.2669,VALID,22.8421,VALID,24,VALID,0,
2015-07-14, 17:07:04,VALID,915.061,VALID,0,VALID,86.1065,VALID,88.5315,VALID,22.8421,VALID,19,VALID,0,
2015-07-14, 17:08:04,VALID,915.042,VALID,0,VALID,86.7468,VALID,95.6226,VALID,22.8014,VALID,28,VALID,0,
2015-07-14, 17:09:04,VALID,915.037,VALID,0,VALID,86.2894,VALID,102.821,VALID,22.8014,VALID,31,VALID,0,
2015-07-14, 17:10:04,VALID,915.078,VALID,0,VALID,86.6477,VALID,113.78,VALID,22.8404,VALID,28,VALID,0,
2015-07-14, 17:11:04,VALID,915.051,VALID,0,VALID,86.7011,VALID,176.418,VALID,22.8387,VALID,23,VALID,0,
2015-07-14, 17:12:04,VALID,915.036,VALID,0,VALID,85.9083,VALID,184.262,VALID,22.8582,VALID,23,VALID,0,
2015-07-14, 17:13:04,VALID,915.076,VALID,0,VALID,86.0912,VALID,198.014,VALID,22.9185,VALID,27,VALID,0,
2015-07-14, 17:14:04,VALID,915.05,VALID,0,VALID,86.3962,VALID,204.353,VALID,23.0356,VALID,26,VALID,0,
2015-07-14, 17:15:04,VALID,915.061,VALID,0,VALID,85.2984,VALID,194.468,VALID,23.2094,VALID,21,VALID,0,
2015-07-14, 17:16:04,VALID,915.017,VALID,0,VALID,84.5666,VALID,180.501,VALID,23.3461,VALID,45,VALID,0,
2015-07-14, 17:17:04,VALID,915.007,VALID,0,VALID,82.6531,VALID,160.947,VALID,23.4632,VALID,359,VALID,0.00507812,
2015-07-14, 17:18:04,VALID,915.028,VALID,0,VALID,82.2948,VALID,134.839,VALID,23.465,VALID,13,VALID,0,
2015-07-14, 17:19:04,VALID,915.013,VALID,0,VALID,82.2185,VALID,119.689,VALID,23.504,VALID,357,VALID,0,
2015-07-14, 17:20:04,VALID,915.015,VALID,0,VALID,81.8907,VALID,119.689,VALID,23.5217,VALID,1,VALID,0,
2015-07-14, 17:21:04,VALID,915.068,VALID,0,VALID,81.136,VALID,138.921,VALID,23.6388,VALID,360,VALID,0,
2015-07-14, 17:22:04,VALID,915.05,VALID,0,VALID,81.1665,VALID,158.368,VALID,23.6797,VALID,4,VALID,0,
2015-07-14, 17:23:04,VALID,915.066,VALID,0,VALID,81.1894,VALID,159.55,VALID,23.6797,VALID,19,VALID,0,
2015-07-14, 17:24:04,VALID,915.07,VALID,0,VALID,82.3329,VALID,156.757,VALID,23.543,VALID,9,VALID,1.53906,
2015-07-14, 17:25:04,VALID,915.057,VALID,0,VALID,84.01,VALID,148.376,VALID,23.3674,VALID,33,VALID,1.04414,
2015-07-14, 17:26:04,VALID,915.08,VALID,0,VALID,83.6136,VALID,148.269,VALID,23.2307,VALID,9,VALID,1.77461,
2015-07-14, 17:27:04,VALID,915.085,VALID,0,VALID,84.254,VALID,145.475,VALID,23.0941,VALID,23,VALID,0,
2015-07-14, 17:28:04,VALID,915.106,VALID,0,VALID,85.1764,VALID,143.434,VALID,22.9983,VALID,13,VALID,0,
2015-07-14, 17:29:04,VALID,915.102,VALID,0,VALID,85.024,VALID,137.632,VALID,23.016,VALID,39,VALID,0,
2015-07-14, 17:30:04,VALID,915.107,VALID,0,VALID,84.9782,VALID,135.376,VALID,23.0746,VALID,357,VALID,0,
2015-07-14, 17:31:04,VALID,915.104,VALID,0,VALID,85.2908,VALID,133.764,VALID,23.1722,VALID,357,VALID,0,
2015-07-14, 17:32:04,VALID,915.123,VALID,0,VALID,84.2235,VALID,132.26,VALID,23.2307,VALID,30,VALID,0,
2015-07-14, 17:33:04,VALID,915.155,VALID,0,VALID,83.9109,VALID,130.541,VALID,23.3283,VALID,5,VALID,0,
2015-07-14, 17:34:04,VALID,915.152,VALID,0,VALID,81.7306,VALID,122.161,VALID,23.3674,VALID,28,VALID,0,
2015-07-14, 17:35:04,VALID,915.126,VALID,0,VALID,83.1562,VALID,117.648,VALID,23.3869,VALID,30,VALID,0,
2015-07-14, 17:36:04,VALID,915.163,VALID,0,VALID,82.7674,VALID,107.656,VALID,23.3283,VALID,28,VALID,0,
2015-07-14, 17:37:04,VALID,915.14,VALID,0,VALID,83.7661,VALID,102.499,VALID,23.1917,VALID,26,VALID,0,
2015-07-14, 17:38:04,VALID,915.175,VALID,0,VALID,83.3621,VALID,90.358,VALID,23.1136,VALID,37,VALID,0,
2015-07-14, 17:39:04,VALID,915.197,VALID,0,VALID,84.4217,VALID,98.5235,VALID,23.0941,VALID,12,VALID,0,
2015-07-14, 17:40:04,VALID,915.21,VALID,0,VALID,84.4446,VALID,83.8041,VALID,23.0551,VALID,10,VALID,0,
2015-07-14, 17:41:04,VALID,915.249,VALID,0,VALID,84.5437,VALID,77.8948,VALID,22.977,VALID,11,VALID,0,
2015-07-14, 17:42:04,VALID,915.217,VALID,0,VALID,85.0773,VALID,75.2088,VALID,22.9185,VALID,22,VALID,0,
2015-07-14, 17:43:04,VALID,915.248,VALID,0,VALID,85.5805,VALID,77.1427,VALID,22.8989,VALID,18,VALID,0,
2015-07-14, 17:44:04,VALID,915.243,VALID,0,VALID,85.8244,VALID,69.7293,VALID,22.8989,VALID,20,VALID,0,
2015-07-14, 17:45:04,VALID,915.238,VALID,0,VALID,85.2374,VALID,67.9028,VALID,22.8404,VALID,5,VALID,1.68359,
2015-07-14, 17:46:04,VALID,915.234,VALID,0,VALID,86.0836,VALID,59.3075,VALID,22.7038,VALID,4,VALID,0,
